[[{"header":{"parameterUnit":"m.s-1","parameterCategory":1,"la1":30.2991,"la2":30.254,"lo1":-89.0895,"lo2":-89.0444,"dy":0.0017,"dx":0.0017,"nx":28,"ny":28,"refTime":"2023-10-06T09:00:00:Z","depth":0,"parameterNumber":2,"parameterNumberName":"U-component_of_WINDS"},"data":[0,0,0,0,0,0,0,0,0,0,0,0,0,0,0,0,0,0,0,0,0,0,0,0,0,0,0,0,0,0,0,0,0,0,0,0,0,0,0,0,0,0,0,0,0,0,0,0,0,0,0,0,0,0,0,0,0,0,-0.1833,-0.1833,0,-0.1799,-0.1799,-0.1798,-0.1768,-0.1768,-0.1767,-0.1767,-0.1732,-0.1732,-0.1731,0,0,0,0,0,0,0,0,0,0,0,0,0,-0.187,-0.187,-0.1833,-0.1833,-0.1832,-0.1799,-0.1799,-0.1798,-0.1768,-0.1768,-0.1767,-0.1767,-0.1732,-0.1732,-0.1731,0,0,0,0,0,0,0,0,0,0,0,0,0,-0.1847,-0.187,-0.1833,-0.1813,-0.1811,-0.1799,-0.1799,-0.1798,-0.1768,-0.1768,-0.1767,-0.1767,-0.1733,-0.1732,-0.1731,-0.1736,0,0,-0.1728,-0.1728,0,0,0,0,0,0,0,0,-0.1848,-0.1846,-0.1817,-0.1815,-0.1812,-0.1787,-0.1799,-0.1777,-0.1768,-0.1785,-0.1767,-0.1766,-0.1751,-0.1748,-0.1743,-0.1734,-0.1733,-0.1728,-0.1727,-0.1727,-0.1727,0,0,0,0,0,0,0,-0.185,-0.1847,-0.182,-0.1816,-0.1813,-0.1805,-0.1802,-0.1795,-0.1771,-0.1783,-0.1781,-0.1777,-0.175,-0.1744,-0.1742,-0.1732,-0.1728,-0.1727,-0.1727,-0.1726,-0.1724,-0.1724,0,0,0,0,0,0,-0.1855,-0.1849,-0.1821,-0.1818,-0.1829,-0.1805,-0.1801,-0.1796,-0.1771,-0.1767,-0.1778,-0.1776,-0.1746,-0.1743,-0.1741,-0.1744,-0.1727,-0.1726,-0.1726,-0.1724,-0.1724,-0.1725,0,0,0,0,0,0,-0.1856,-0.1853,-0.1822,-0.1833,-0.1828,-0.1805,-0.18,-0.1795,-0.179,-0.1767,-0.1763,-0.1777,-0.1745,-0.1742,-0.1737,-0.1743,-0.1726,-0.1725,-0.1723,-0.1724,-0.1724,-0.1752,0,0,0,0,0,0,-0.1857,-0.1853,-0.1855,-0.1833,-0.1828,-0.1819,-0.18,-0.1795,-0.1789,-0.1786,-0.1765,-0.1761,-0.1745,-0.1739,-0.1736,-0.1741,-0.1724,-0.1722,-0.1723,-0.1724,-0.1751,-0.1754,-0.1756,0,0,0,0,0,-0.1858,-0.1865,-0.1856,-0.1852,-0.183,-0.182,-0.1817,-0.1798,-0.1789,-0.1791,-0.1776,-0.1761,-0.1742,-0.1738,-0.1735,-0.174,-0.1722,-0.1723,-0.1724,-0.1749,-0.1753,-0.1756,0,0,0,0,0,0,-0.1888,-0.1861,-0.1851,-0.185,-0.1838,-0.1815,-0.1816,-0.1803,-0.1792,-0.179,-0.1768,-0.1763,-0.176,-0.175,-0.1745,-0.1743,-0.173,-0.1731,-0.175,-0.1754,-0.1757,-0.1759,-0.1723,0,0,0,0,0,-0.1895,-0.1889,-0.1866,-0.1867,-0.1861,-0.184,-0.1835,-0.1821,-0.1807,-0.1801,-0.1786,-0.1773,-0.1763,-0.1758,-0.1748,-0.1749,-0.1743,-0.175,-0.1753,-0.1756,-0.1757,-0.1755,-0.1758,-0.1728,-0.1728,-0.1728,0,0,-0.1908,-0.1893,-0.1891,-0.1873,-0.1861,-0.1855,-0.1836,-0.183,-0.1825,-0.1801,-0.1795,-0.1783,-0.1766,-0.1764,-0.1762,-0.1755,-0.1763,-0.1757,-0.1759,-0.1759,-0.1756,-0.1759,-0.1762,-0.1729,-0.1729,-0.1729,0,0,-0.193,-0.1918,-0.1917,-0.1906,-0.1888,-0.1874,-0.1874,-0.1853,-0.1844,-0.1837,-0.1818,-0.1812,-0.1797,-0.1785,-0.1777,-0.1793,-0.1779,-0.179,-0.1806,-0.1804,-0.1807,-0.1808,-0.1813,-0.1816,-0.1791,-0.1791,-0.1791,0,-0.1949,-0.1939,-0.1919,-0.1914,-0.1907,-0.1884,-0.1883,-0.1872,-0.1853,-0.1848,-0.184,-0.182,-0.1807,-0.1801,-0.1804,-0.1799,-0.1798,-0.1793,-0.1808,-0.181,-0.1811,-0.1816,-0.1818,-0.1793,-0.1792,-0.1792,-0.1792,0,-0.1963,-0.1957,-0.1958,-0.194,-0.1932,-0.1929,-0.1908,-0.1903,-0.1889,-0.1876,-0.1869,-0.1852,-0.1838,-0.1836,-0.1823,-0.1828,-0.1824,-0.1812,-0.1799,-0.1816,-0.182,-0.1821,-0.1795,-0.1794,-0.1794,-0.1793,0,0,-0.2004,-0.1973,-0.1974,-0.1965,-0.1943,-0.1937,-0.1933,-0.1919,-0.1915,-0.1901,-0.1897,-0.1884,-0.1873,-0.1864,-0.1849,-0.1848,-0.1861,-0.1837,-0.1836,-0.1841,-0.1863,-0.1872,-0.1875,-0.1851,-0.1851,-0.1851,-0.1865,0,-0.2022,-0.2013,-0.1994,-0.1991,-0.1984,-0.1961,-0.1957,-0.1943,-0.193,-0.1921,-0.1906,-0.1897,-0.1883,-0.1878,-0.1876,-0.186,-0.1865,-0.1858,-0.1846,-0.1846,-0.1851,-0.1877,-0.1886,-0.19,-0.1866,-0.1866,-0.1867,0,-0.2042,-0.203,-0.2026,-0.2004,-0.2,-0.1997,-0.1982,-0.1975,-0.1958,-0.1948,-0.1937,-0.1921,-0.1914,-0.1902,-0.1892,-0.1888,-0.1881,-0.1873,-0.1873,-0.1871,-0.1858,-0.1876,-0.1904,-0.1906,-0.1869,-0.1869,-0.1868,0,-0.2071,-0.2054,-0.2049,-0.2042,-0.2016,-0.2014,-0.2003,-0.1986,-0.1978,-0.1965,-0.196,-0.1946,-0.1938,-0.1928,-0.1908,-0.1901,-0.19,-0.1886,-0.1891,-0.1892,-0.1893,-0.1893,-0.192,-0.1888,-0.1888,-0.1888,-0.1888,0,-0.2094,-0.2092,-0.2062,-0.206,-0.2057,-0.2034,-0.2032,-0.2019,-0.2003,-0.1997,-0.1976,-0.197,-0.1944,-0.1935,-0.192,-0.1914,-0.191,-0.1902,-0.1898,-0.1904,-0.1905,-0.19,-0.1898,-0.1889,-0.1889,-0.1889,-0.1888,0,-0.2127,-0.2107,-0.21,-0.2075,-0.2069,-0.2068,-0.2047,-0.2043,-0.2027,-0.2019,-0.2016,-0.1992,-0.198,-0.1959,-0.1942,-0.1931,-0.1928,-0.1921,-0.1934,-0.1931,-0.1938,-0.1938,-0.1963,-0.1965,-0.1932,-0.1932,-0.1933,0,-0.2142,-0.2141,-0.2116,-0.211,-0.21,-0.2091,-0.2083,-0.206,-0.2052,-0.2032,-0.203,-0.2017,-0.2005,-0.1987,-0.1968,-0.1954,-0.1946,-0.1956,-0.1944,-0.195,-0.1946,-0.1946,-0.1946,-0.1959,-0.1959,-0.196,-0.196,0,-0.2172,-0.2162,-0.2151,-0.2137,-0.2128,-0.2116,-0.2102,-0.2098,-0.2072,-0.2065,-0.2052,-0.2043,-0.2025,-0.2011,-0.1994,-0.1982,-0.1967,-0.1964,-0.1964,-0.197,-0.1978,-0.1974,-0.1941,-0.1963,-0.1963,-0.1963,-0.1963,-0.1962,-0.2197,-0.2194,-0.2176,-0.2164,-0.2151,-0.2139,-0.2134,-0.2117,-0.2107,-0.209,-0.2077,-0.2065,-0.2047,-0.2022,-0.2011,-0.2001,-0.1994,-0.1995,-0.1995,-0.1995,-0.1998,-0.1979,-0.1998,-0.1998,-0.1998,-0.1997,-0.1997,0,-0.2225,-0.2212,-0.2202,-0.2183,-0.2174,-0.216,-0.2143,-0.2137,-0.2127,-0.2111,-0.2099,-0.2085,-0.2071,-0.205,-0.2035,-0.2031,-0.2023,-0.2028,-0.2028,-0.2025,-0.2005,-0.2006,-0.2034,-0.2034,-0.2034,-0.2034,-0.2034,-0.2034,-0.2239,-0.2233,-0.2221,-0.2208,-0.2194,-0.2183,-0.2175,-0.2163,-0.215,-0.2134,-0.2123,-0.2109,-0.2091,-0.2074,-0.206,-0.2055,-0.205,-0.2056,-0.2048,-0.203,-0.2027,-0.2023,-0.2024,-0.2056,-0.2056,-0.2069,-0.2069,-0.2069]},{"header":{"parameterUnit":"m.s-1","parameterCategory":1,"la1":30.2991,"la2":30.254,"lo1":-89.0895,"lo2":-89.0444,"dy":0.0017,"dx":0.0017,"nx":28,"ny":28,"refTime":"2023-10-06T09:00:00:Z","depth":0,"parameterNumber":3,"parameterNumberName":"V-component_of_WINDS"},"data":[0,0,0,0,0,0,0,0,0,0,0,0,0,0,0,0,0,0,0,0,0,0,0,0,0,0,0,0,0,0,0,0,0,0,0,0,0,0,0,0,0,0,0,0,0,0,0,0,0,0,0,0,0,0,0,0,0,0,-6.7239,-6.7239,0,-6.7304,-6.7304,-6.7305,-6.7273,-6.7272,-6.727,-6.7268,-6.7329,-6.7332,-6.7335,0,0,0,0,0,0,0,0,0,0,0,0,0,-6.7082,-6.7085,-6.7239,-6.724,-6.724,-6.7304,-6.7304,-6.7305,-6.7274,-6.7271,-6.7269,-6.7268,-6.7328,-6.7331,-6.7335,0,0,0,0,0,0,0,0,0,0,0,0,0,-6.7149,-6.7086,-6.7239,-6.7232,-6.7232,-6.7303,-6.7304,-6.7306,-6.7274,-6.7271,-6.7269,-6.7267,-6.7326,-6.7331,-6.7336,-6.7415,0,0,-6.735,-6.7352,0,0,0,0,0,0,0,0,-6.7145,-6.7155,-6.7232,-6.7233,-6.7233,-6.7278,-6.7271,-6.7342,-6.7275,-6.7258,-6.7268,-6.7265,-6.7313,-6.7319,-6.7336,-6.7418,-6.742,-6.7351,-6.7353,-6.7355,-6.7357,0,0,0,0,0,0,0,-6.714,-6.7152,-6.7264,-6.7233,-6.7234,-6.7225,-6.7231,-6.7285,-6.7299,-6.7259,-6.7257,-6.7266,-6.7313,-6.7332,-6.7338,-6.7421,-6.735,-6.7355,-6.7358,-6.7359,-6.7572,-6.7574,0,0,0,0,0,0,-6.7137,-6.7148,-6.7262,-6.7266,-6.7182,-6.7229,-6.7237,-6.7266,-6.7298,-6.7301,-6.7268,-6.7264,-6.7325,-6.7332,-6.734,-6.7435,-6.7355,-6.736,-6.7363,-6.7569,-6.7572,-6.7575,0,0,0,0,0,0,-6.7134,-6.7147,-6.7259,-6.7207,-6.722,-6.7235,-6.7268,-6.7269,-6.7288,-6.7305,-6.7306,-6.7285,-6.7323,-6.7333,-6.7397,-6.7437,-6.7362,-6.7366,-6.7565,-6.757,-6.7574,-6.7627,0,0,0,0,0,0,-6.7129,-6.7146,-6.7178,-6.7208,-6.7223,-6.7317,-6.727,-6.7272,-6.7297,-6.7292,-6.7321,-6.7323,-6.7322,-6.739,-6.7402,-6.7442,-6.737,-6.7562,-6.7567,-6.7572,-6.7622,-6.7632,-6.7642,0,0,0,0,0,-6.7124,-6.7188,-6.7179,-6.7193,-6.7263,-6.732,-6.7328,-6.7328,-6.73,-6.7331,-6.7342,-6.7322,-6.7431,-6.7397,-6.741,-6.7452,-6.7559,-6.7566,-6.7572,-6.7617,-6.763,-6.7641,0,0,0,0,0,0,-6.716,-6.7192,-6.7182,-6.7259,-6.7287,-6.7314,-6.7353,-6.7341,-6.7376,-6.7371,-6.7366,-6.7373,-6.744,-6.7452,-6.7414,-6.7531,-6.7491,-6.75,-6.7521,-6.7533,-6.7543,-6.7538,-6.7374,0,0,0,0,0,-6.7177,-6.7223,-6.7247,-6.7312,-6.7328,-6.7338,-6.7363,-6.736,-6.7388,-6.7399,-6.7415,-6.7442,-6.7482,-6.7508,-6.7546,-6.7623,-6.7629,-6.7659,-6.7669,-6.7677,-6.7685,-6.7727,-6.7741,-6.7596,-6.7596,-6.7596,0,0,-6.7212,-6.7236,-6.7264,-6.732,-6.7342,-6.7388,-6.7348,-6.7398,-6.7432,-6.7406,-6.7469,-6.7481,-6.751,-6.7582,-6.7614,-6.7594,-6.7726,-6.7685,-6.7691,-6.7695,-6.7735,-6.7749,-6.7761,-6.76,-6.7599,-6.7599,0,0,-6.73,-6.7323,-6.738,-6.7403,-6.7438,-6.7445,-6.7459,-6.7488,-6.7496,-6.756,-6.7542,-6.7581,-6.765,-6.7672,-6.7692,-6.7791,-6.7775,-6.7803,-6.7855,-6.7897,-6.7909,-6.7919,-6.7954,-6.7967,-6.7811,-6.7811,-6.7811,0,-6.7339,-6.741,-6.741,-6.7463,-6.7488,-6.747,-6.7528,-6.7549,-6.7593,-6.761,-6.7588,-6.7676,-6.7694,-6.7771,-6.7796,-6.7812,-6.7828,-6.78,-6.7907,-6.7917,-6.7927,-6.7961,-6.7974,-6.7815,-6.7814,-6.7814,-6.7814,0,-6.7456,-6.7505,-6.7547,-6.7593,-6.7623,-6.7677,-6.7685,-6.7715,-6.7711,-6.772,-6.7784,-6.7806,-6.7849,-6.7867,-6.7861,-6.7943,-6.793,-6.7908,-6.7867,-6.7944,-6.7976,-6.7989,-6.7819,-6.7818,-6.7817,-6.7816,0,0,-6.7566,-6.7615,-6.763,-6.7652,-6.7689,-6.7726,-6.778,-6.7824,-6.785,-6.7881,-6.7925,-6.7986,-6.7966,-6.7989,-6.7986,-6.8023,-6.81,-6.7996,-6.7996,-6.8015,-6.8193,-6.821,-6.8225,-6.809,-6.8093,-6.8094,-6.8191,0,-6.7657,-6.7754,-6.7757,-6.7845,-6.789,-6.7875,-6.7922,-6.7949,-6.7959,-6.7998,-6.8008,-6.8052,-6.8022,-6.8036,-6.8072,-6.8083,-6.8136,-6.8076,-6.813,-6.8132,-6.8124,-6.8241,-6.8259,-6.8348,-6.8203,-6.8205,-6.8207,0,-6.7776,-6.7815,-6.7908,-6.7941,-6.796,-6.8002,-6.8044,-6.8081,-6.8112,-6.8117,-6.8144,-6.8136,-6.819,-6.8148,-6.8222,-6.8181,-6.8203,-6.8213,-6.8216,-6.8221,-6.8174,-6.8249,-6.8377,-6.839,-6.8226,-6.8224,-6.8223,0,-6.7849,-6.7923,-6.7989,-6.8008,-6.8047,-6.8078,-6.8095,-6.8124,-6.815,-6.8186,-6.8203,-6.8244,-6.8266,-6.8297,-6.83,-6.8269,-6.8374,-6.8332,-6.8379,-6.8379,-6.8401,-6.84,-6.8534,-6.8416,-6.8416,-6.8415,-6.8415,0,-6.795,-6.8007,-6.8022,-6.8063,-6.8127,-6.8129,-6.8192,-6.8207,-6.8233,-6.8275,-6.8263,-6.8302,-6.8304,-6.8344,-6.8346,-6.8407,-6.8417,-6.8422,-6.8421,-6.8423,-6.8422,-6.8437,-6.8431,-6.8419,-6.8418,-6.8417,-6.8417,0,-6.8041,-6.8053,-6.8124,-6.8157,-6.8167,-6.8213,-6.824,-6.8278,-6.8288,-6.8342,-6.8354,-6.8369,-6.8416,-6.8422,-6.8476,-6.8477,-6.8551,-6.8544,-6.8541,-6.854,-6.8587,-6.8582,-6.8735,-6.8755,-6.8624,-6.8625,-6.8626,0,-6.8105,-6.8149,-6.8188,-6.8217,-6.8237,-6.8283,-6.8311,-6.8316,-6.8345,-6.8385,-6.8418,-6.8464,-6.8501,-6.8576,-6.8591,-6.8632,-6.8626,-6.8677,-6.8632,-6.8632,-6.8627,-6.8624,-6.8629,-6.8685,-6.8687,-6.8688,-6.8689,0,-6.8217,-6.8221,-6.8264,-6.831,-6.8345,-6.838,-6.8413,-6.8436,-6.8445,-6.8479,-6.8528,-6.8557,-6.8614,-6.8659,-6.87,-6.8716,-6.8704,-6.8703,-6.8716,-6.8718,-6.8715,-6.8717,-6.8565,-6.8699,-6.8698,-6.8697,-6.8697,-6.8696,-6.8296,-6.8336,-6.837,-6.8418,-6.8445,-6.8476,-6.8515,-6.8531,-6.8573,-6.8621,-6.862,-6.8674,-6.8704,-6.8759,-6.8778,-6.8819,-6.8802,-6.8821,-6.8826,-6.883,-6.8835,-6.8709,-6.8827,-6.8826,-6.8826,-6.8826,-6.8826,0,-6.8408,-6.843,-6.8475,-6.8523,-6.8561,-6.8549,-6.8586,-6.8618,-6.8666,-6.8697,-6.8734,-6.8791,-6.8836,-6.8855,-6.8899,-6.8928,-6.8923,-6.8939,-6.8937,-6.8941,-6.8848,-6.8832,-6.8942,-6.8942,-6.8942,-6.8942,-6.8942,-6.8942,-6.8471,-6.8537,-6.8547,-6.8626,-6.8647,-6.8702,-6.8724,-6.8753,-6.8778,-6.8842,-6.8881,-6.8894,-6.892,-6.8965,-6.9006,-6.901,-6.9027,-6.9045,-6.9047,-6.8959,-6.8947,-6.8936,-6.8922,-6.9049,-6.9049,-6.9137,-6.9138,-6.9138]}]]